| time (UTC) | temp F | wind direction | speed MPH | gust MPH | rain 1hr in | rain 24hr in | rain mn in | humidity % | barometer mb |
| 20260506001644 | 61 | 270 | 4.0 | 6.0 | 0.00 | 0.02 | 0.02 | 46 | 1010.2 |
| 20260506001142 | 62 | 285 | 2.0 | 3.0 | 0.00 | 0.02 | 0.02 | 45 | 1010.1 |
| 20260506000640 | 62 | 276 | 2.0 | 6.0 | 0.00 | 0.02 | 0.02 | 45 | 1010.3 |
| 20260506000137 | 62 | 278 | 1.0 | 1.0 | 0.00 | 0.02 | 0.02 | 45 | 1010.2 |
| 20260505235635 | 62 | 226 | 2.0 | 3.0 | 0.00 | 0.02 | 0.02 | 45 | 1010.3 |
| 20260505235132 | 62 | 201 | 0.0 | 1.0 | 0.00 | 0.02 | 0.02 | 45 | 1010.1 |
| 20260505234628 | 63 | 13 | 2.0 | 2.0 | 0.00 | 0.02 | 0.02 | 46 | 1010.2 |
| 20260505234125 | 65 | 78 | 0.0 | 0.0 | 0.00 | 0.02 | 0.02 | 44 | 1010.0 |
| 20260505233622 | 66 | 240 | 2.0 | 2.0 | 0.00 | 0.02 | 0.02 | 41 | 1010.2 |
| 20260505233120 | 65 | 267 | 1.0 | 1.0 | 0.00 | 0.02 | 0.02 | 44 | 1010.2 |
| 20260505232617 | 66 | 247 | 2.0 | 3.0 | 0.00 | 0.02 | 0.02 | 43 | 1010.3 |
| 20260505232115 | 66 | 288 | 3.0 | 5.0 | 0.00 | 0.02 | 0.02 | 41 | 1010.2 |
| 20260505231611 | 65 | 340 | 1.0 | 2.0 | 0.00 | 0.02 | 0.02 | 42 | 1010.5 |
| 20260505231110 | 64 | 248 | 2.0 | 3.0 | 0.00 | 0.02 | 0.02 | 43 | 1010.3 |
| 20260505230608 | 64 | 272 | 3.0 | 5.0 | 0.00 | 0.02 | 0.02 | 43 | 1010.7 |
| 20260505225600 | 65 | 299 | 2.0 | 3.0 | 0.00 | 0.02 | 0.02 | 43 | 1010.8 |
| 20260505225056 | 65 | 293 | 4.0 | 5.0 | 0.00 | 0.02 | 0.02 | 46 | 1010.8 |
| 20260505224553 | 64 | 268 | 2.0 | 3.0 | 0.00 | 0.02 | 0.02 | 46 | 1010.5 |
| 20260505224050 | 61 | 349 | 0.0 | 0.0 | 0.00 | 0.02 | 0.02 | 52 | 1010.7 |
| 20260505223547 | 62 | 323 | 4.0 | 6.0 | 0.00 | 0.02 | 0.02 | 48 | 1010.8 |
| 20260505223044 | 62 | 169 | 3.0 | 3.0 | 0.00 | 0.02 | 0.02 | 48 | 1010.7 |
| 20260505222540 | 62 | 207 | 2.0 | 2.0 | 0.00 | 0.02 | 0.02 | 48 | 1010.8 |
| 20260505222037 | 62 | 318 | 0.0 | 0.0 | 0.00 | 0.02 | 0.02 | 47 | 1010.9 |
| 20260505221534 | 61 | 192 | 2.0 | 2.0 | 0.00 | 0.02 | 0.02 | 51 | 1011.2 |
| 20260505221030 | 61 | 203 | 1.0 | 2.0 | 0.00 | 0.02 | 0.02 | 51 | 1011.4 |
| 20260505220528 | 60 | 264 | 3.0 | 5.0 | 0.00 | 0.02 | 0.02 | 56 | 1011.3 |
| 20260505220025 | 60 | 233 | 3.0 | 3.0 | 0.00 | 0.02 | 0.02 | 55 | 1011.4 |
| 20260505215523 | 59 | 227 | 3.0 | 5.0 | 0.00 | 0.02 | 0.02 | 55 | 1011.5 |
| 20260505215021 | 58 | 216 | 4.0 | 5.0 | 0.00 | 0.02 | 0.02 | 61 | 1011.8 |
| 20260505214519 | 56 | 261 | 5.0 | 9.0 | 0.07 | 0.02 | 0.02 | 71 | 1012.3 |
| 20260505214015 | 56 | 257 | 5.0 | 7.0 | 0.07 | 0.02 | 0.02 | 70 | 1012.5 |
| 20260505213513 | 57 | 215 | 7.0 | 10.0 | 0.00 | 0.01 | 0.01 | 64 | 1012.5 |
| 20260505213009 | 59 | 270 | 3.0 | 5.0 | 0.00 | 0.01 | 0.01 | 62 | 1012.1 |
| 20260505212505 | 62 | 266 | 4.0 | 7.0 | 0.00 | 0.01 | 0.01 | 52 | 1012.0 |
| 20260505212002 | 63 | 226 | 2.0 | 3.0 | 0.00 | 0.01 | 0.01 | 48 | 1011.9 |
| 20260505211500 | 63 | 146 | 0.0 | 1.0 | 0.00 | 0.01 | 0.01 | 48 | 1011.9 |
| 20260505210956 | 63 | 246 | 1.0 | 2.0 | 0.00 | 0.01 | 0.01 | 45 | 1011.6 |
| 20260505210453 | 63 | 240 | 1.0 | 1.0 | 0.00 | 0.01 | 0.01 | 45 | 1011.8 |
| 20260505205950 | 63 | 236 | 1.0 | 2.0 | 0.00 | 0.01 | 0.01 | 44 | 1011.6 |
| 20260505205449 | 64 | 249 | 4.0 | 6.0 | 0.00 | 0.01 | 0.01 | 44 | 1011.9 |
| 20260505204945 | 63 | 18 | 2.0 | 2.0 | 0.00 | 0.01 | 0.01 | 45 | 1011.8 |
| 20260505204443 | 66 | 260 | 2.0 | 2.0 | 0.00 | 0.01 | 0.01 | 43 | 1012.0 |
| 20260505203940 | 64 | 231 | 2.0 | 3.0 | 0.00 | 0.01 | 0.01 | 43 | 1011.6 |
| 20260505203436 | 63 | 4 | 2.0 | 2.0 | 0.00 | 0.01 | 0.01 | 45 | 1012.1 |
| 20260505202933 | 66 | 140 | 3.0 | 3.0 | 0.00 | 0.01 | 0.01 | 42 | 1011.8 |
| 20260505202429 | 65 | 203 | 1.0 | 1.0 | 0.00 | 0.01 | 0.01 | 42 | 1012.2 |
| 20260505201925 | 65 | 254 | 1.0 | 2.0 | 0.00 | 0.01 | 0.01 | 43 | 1012.2 |
| 20260505201422 | 63 | 275 | 3.0 | 5.0 | 0.00 | 0.01 | 0.01 | 46 | 1012.1 |
| 20260505200921 | 64 | 30 | 2.0 | 3.0 | 0.00 | 0.01 | 0.01 | 45 | 1012.1 |
| 20260505200418 | 63 | 245 | 1.0 | 1.0 | 0.00 | 0.01 | 0.01 | 47 | 1012.0 |
| 20260505195913 | 62 | 294 | 3.0 | 5.0 | 0.00 | 0.01 | 0.01 | 50 | 1012.0 |
| 20260505195411 | 60 | 100 | 0.0 | 1.0 | 0.00 | 0.01 | 0.01 | 51 | 1011.9 |
| 20260505194908 | 60 | 260 | 3.0 | 3.0 | 0.00 | 0.01 | 0.01 | 52 | 1012.3 |
| 20260505194406 | 60 | 336 | 5.0 | 6.0 | 0.00 | 0.01 | 0.01 | 53 | 1012.3 |
| 20260505193905 | 59 | 260 | 5.0 | 9.0 | 0.00 | 0.01 | 0.01 | 55 | 1012.7 |
| 20260505193403 | 58 | 223 | 5.0 | 8.0 | 0.00 | 0.01 | 0.01 | 54 | 1012.7 |
| 20260505192901 | 58 | 307 | 6.0 | 9.0 | 0.00 | 0.01 | 0.01 | 55 | 1012.8 |
| 20260505192359 | 59 | 253 | 4.0 | 8.0 | 0.00 | 0.01 | 0.01 | 56 | 1012.7 |
| 20260505191856 | 60 | 224 | 5.0 | 8.0 | 0.00 | 0.01 | 0.01 | 55 | 1012.8 |
| 20260505191354 | 61 | 299 | 3.0 | 5.0 | 0.00 | 0.01 | 0.01 | 56 | 1012.9 |
| 20260505190851 | 60 | 83 | 1.0 | 2.0 | 0.00 | 0.01 | 0.01 | 56 | 1012.9 |
| 20260505190346 | 61 | 197 | 3.0 | 3.0 | 0.00 | 0.01 | 0.01 | 56 | 1013.3 |
| 20260505185842 | 59 | 151 | 2.0 | 2.0 | 0.00 | 0.01 | 0.01 | 60 | 1013.2 |
| 20260505185339 | 58 | 99 | 0.0 | 1.0 | 0.00 | 0.01 | 0.01 | 63 | 1012.9 |
| 20260505184835 | 58 | 252 | 3.0 | 5.0 | 0.00 | 0.01 | 0.01 | 66 | 1012.8 |
| 20260505184332 | 57 | 207 | 1.0 | 2.0 | 0.00 | 0.01 | 0.01 | 68 | 1012.9 |
| 20260505183829 | 56 | 224 | 3.0 | 5.0 | 0.00 | 0.01 | 0.01 | 71 | 1013.2 |
| 20260505183326 | 56 | 176 | 0.0 | 1.0 | 0.05 | 0.01 | 0.01 | 74 | 1013.2 |
| 20260505182823 | 56 | 170 | 4.0 | 5.0 | 0.05 | 0.01 | 0.01 | 71 | 1013.4 |
| 20260505182319 | 57 | 109 | 5.0 | 8.0 | 0.00 | 0.00 | 0.00 | 66 | 1013.0 |
| 20260505181816 | 57 | 114 | 4.0 | 6.0 | 0.00 | 0.00 | 0.00 | 64 | 1013.0 |
| 20260505181314 | 59 | 118 | 3.0 | 5.0 | 0.00 | 0.00 | 0.00 | 52 | 1013.4 |
| 20260505180810 | 59 | 129 | 2.0 | 2.0 | 0.00 | 0.00 | 0.00 | 50 | 1012.8 |
| 20260505180306 | 58 | 154 | 2.0 | 3.0 | 0.00 | 0.00 | 0.00 | 49 | 1012.9 |
| 20260505175803 | 61 | 131 | 1.0 | 1.0 | 0.00 | 0.00 | 0.00 | 45 | 1013.2 |
| 20260505175259 | 61 | 111 | 1.0 | 1.0 | 0.00 | 0.00 | 0.00 | 46 | 1013.0 |
| 20260505174756 | 60 | 343 | 0.0 | 0.0 | 0.00 | 0.00 | 0.00 | 47 | 1012.7 |
| 20260505174253 | 60 | 164 | 3.0 | 3.0 | 0.00 | 0.00 | 0.00 | 46 | 1012.8 |
| 20260505173749 | 61 | 59 | 3.0 | 3.0 | 0.00 | 0.00 | 0.00 | 45 | 1012.8 |
| 20260505173246 | 60 | 51 | 1.0 | 2.0 | 0.00 | 0.00 | 0.00 | 47 | 1012.9 |
| 20260505172743 | 60 | 329 | 3.0 | 3.0 | 0.00 | 0.00 | 0.00 | 47 | 1012.6 |
| 20260505172240 | 60 | 35 | 0.0 | 0.0 | 0.00 | 0.00 | 0.00 | 46 | 1012.7 |
| 20260505171740 | 59 | 55 | 3.0 | 3.0 | 0.00 | 0.00 | 0.00 | 47 | 1012.6 |
| 20260505171237 | 58 | 284 | 1.0 | 1.0 | 0.00 | 0.00 | 0.00 | 48 | 1012.8 |
| 20260505170734 | 58 | 5 | 3.0 | 5.0 | 0.00 | 0.00 | 0.00 | 49 | 1013.0 |
| 20260505170231 | 57 | 7 | 4.0 | 5.0 | 0.00 | 0.00 | 0.00 | 49 | 1012.7 |
| 20260505165726 | 57 | 324 | 4.0 | 5.0 | 0.00 | 0.00 | 0.00 | 49 | 1012.9 |
| 20260505165222 | 57 | 302 | 3.0 | 5.0 | 0.00 | 0.00 | 0.00 | 49 | 1013.0 |
| 20260505164718 | 57 | 288 | 4.0 | 6.0 | 0.00 | 0.00 | 0.00 | 50 | 1013.0 |
| 20260505164215 | 57 | 315 | 1.0 | 2.0 | 0.00 | 0.00 | 0.00 | 51 | 1012.7 |
| 20260505163713 | 56 | 354 | 6.0 | 8.0 | 0.00 | 0.00 | 0.00 | 51 | 1012.7 |
| 20260505163211 | 56 | 29 | 4.0 | 5.0 | 0.00 | 0.00 | 0.00 | 53 | 1012.9 |
| 20260505162708 | 56 | 324 | 5.0 | 6.0 | 0.00 | 0.00 | 0.00 | 53 | 1012.9 |
| 20260505162206 | 55 | 13 | 6.0 | 7.0 | 0.00 | 0.00 | 0.00 | 55 | 1012.9 |
| 20260505161702 | 55 | 4 | 6.0 | 10.0 | 0.00 | 0.00 | 0.00 | 55 | 1013.0 |
| 20260505161200 | 55 | 344 | 5.0 | 7.0 | 0.00 | 0.00 | 0.00 | 58 | 1012.9 |
| 20260505160657 | 54 | 3 | 4.0 | 6.0 | 0.00 | 0.00 | 0.00 | 60 | 1013.2 |
| 20260505160155 | 53 | 327 | 5.0 | 10.0 | 0.00 | 0.00 | 0.00 | 61 | 1013.5 |
| 20260505153134 | 53 | 330 | 4.0 | 9.0 | 0.00 | 0.00 | 0.00 | 70 | 1013.5 |
| 20260505152630 | 54 | 341 | 4.0 | 7.0 | 0.00 | 0.00 | 0.00 | 66 | 1013.6 |
| 20260505152126 | 53 | 339 | 5.0 | 7.0 | 0.00 | 0.00 | 0.00 | 66 | 1013.7 |
| 20260505151622 | 54 | 268 | 4.0 | 5.0 | 0.00 | 0.00 | 0.00 | 66 | 1013.7 |
| 20260505151120 | 54 | 349 | 3.0 | 7.0 | 0.00 | 0.00 | 0.00 | 66 | 1013.5 |
| 20260505150615 | 54 | 0 | 6.0 | 8.0 | 0.00 | 0.00 | 0.00 | 65 | 1013.7 |
| 20260505150113 | 54 | 281 | 3.0 | 5.0 | 0.00 | 0.00 | 0.00 | 67 | 1013.4 |
| 20260505140541 | 57 | 239 | 0.0 | 1.0 | 0.00 | 0.00 | 0.00 | 50 | 1013.4 |
| 20260505124954 | 57 | 264 | 1.0 | 2.0 | 0.00 | 0.00 | 0.00 | 43 | 1012.5 |
| 20260505124452 | 57 | 303 | 1.0 | 1.0 | 0.00 | 0.00 | 0.00 | 43 | 1012.3 |
| 20260505123948 | 57 | 283 | 2.0 | 3.0 | 0.00 | 0.00 | 0.00 | 44 | 1012.7 |
| 20260505123444 | 58 | 283 | 3.0 | 6.0 | 0.00 | 0.00 | 0.00 | 42 | 1012.2 |
| 20260505122940 | 57 | 295 | 4.0 | 5.0 | 0.00 | 0.00 | 0.00 | 41 | 1012.5 |
| 20260505122437 | 58 | 276 | 4.0 | 6.0 | 0.00 | 0.00 | 0.00 | 41 | 1012.5 |
| 20260505121934 | 58 | 247 | 1.0 | 2.0 | 0.00 | 0.00 | 0.00 | 42 | 1012.3 |
| 20260505121431 | 58 | 281 | 2.0 | 2.0 | 0.00 | 0.00 | 0.00 | 42 | 1012.5 |
| 20260505120927 | 58 | 225 | 5.0 | 10.0 | 0.00 | 0.00 | 0.00 | 42 | 1012.5 |
| 20260505120424 | 58 | 276 | 5.0 | 7.0 | 0.00 | 0.00 | 0.00 | 42 | 1012.3 |
| 20260505115922 | 57 | 259 | 3.0 | 5.0 | 0.00 | 0.00 | 0.00 | 42 | 1012.3 |
| 20260505115419 | 58 | 194 | 2.0 | 2.0 | 0.00 | 0.00 | 0.00 | 43 | 1012.2 |
| 20260505114917 | 58 | 287 | 1.0 | 2.0 | 0.00 | 0.00 | 0.00 | 42 | 1012.5 |
| 20260505114413 | 58 | 271 | 2.0 | 2.0 | 0.00 | 0.00 | 0.00 | 43 | 1012.5 |
| 20260505113910 | 58 | 282 | 1.0 | 1.0 | 0.00 | 0.00 | 0.00 | 43 | 1012.5 |
| 20260505113407 | 58 | 261 | 2.0 | 2.0 | 0.00 | 0.00 | 0.00 | 43 | 1012.1 |
| 20260505112902 | 58 | 234 | 3.0 | 3.0 | 0.00 | 0.00 | 0.00 | 43 | 1012.3 |
| 20260505112400 | 58 | 216 | 3.0 | 3.0 | 0.00 | 0.00 | 0.00 | 43 | 1012.1 |
| 20260505111856 | 58 | 246 | 1.0 | 2.0 | 0.00 | 0.00 | 0.00 | 42 | 1012.2 |
| 20260505111351 | 59 | 249 | 3.0 | 3.0 | 0.00 | 0.00 | 0.00 | 42 | 1012.1 |
| 20260505110847 | 59 | 200 | 2.0 | 2.0 | 0.00 | 0.00 | 0.00 | 42 | 1012.0 |
| 20260505110345 | 59 | 212 | 3.0 | 3.0 | 0.00 | 0.00 | 0.00 | 41 | 1012.3 |
| 20260505101821 | 59 | 269 | 3.0 | 6.0 | 0.00 | 0.00 | 0.00 | 35 | 1012.5 |
| 20260505101310 | 59 | 357 | 3.0 | 3.0 | 0.00 | 0.00 | 0.00 | 35 | 1012.5 |
| 20260505100807 | 59 | 232 | 4.0 | 6.0 | 0.00 | 0.00 | 0.00 | 35 | 1012.6 |
| 20260505100304 | 59 | 250 | 3.0 | 3.0 | 0.00 | 0.00 | 0.00 | 35 | 1012.5 |
| 20260505095759 | 59 | 248 | 1.0 | 2.0 | 0.00 | 0.00 | 0.00 | 34 | 1012.2 |
| 20260505095257 | 59 | 232 | 3.0 | 5.0 | 0.00 | 0.00 | 0.00 | 34 | 1012.1 |
| 20260505094752 | 59 | 242 | 2.0 | 2.0 | 0.00 | 0.00 | 0.00 | 34 | 1012.3 |
| 20260505094250 | 59 | 233 | 1.0 | 1.0 | 0.00 | 0.00 | 0.00 | 33 | 1012.6 |
| 20260505093745 | 59 | 262 | 1.0 | 1.0 | 0.00 | 0.00 | 0.00 | 34 | 1012.5 |
| 20260505093243 | 59 | 235 | 1.0 | 2.0 | 0.00 | 0.00 | 0.00 | 34 | 1012.6 |
| 20260505092740 | 59 | 14 | 0.0 | 0.0 | 0.00 | 0.00 | 0.00 | 35 | 1012.6 |
| 20260505092238 | 59 | 296 | 0.0 | 0.0 | 0.00 | 0.00 | 0.00 | 34 | 1012.3 |
| 20260505091735 | 59 | 345 | 0.0 | 1.0 | 0.00 | 0.00 | 0.00 | 34 | 1012.5 |
| 20260505091233 | 59 | 359 | 0.0 | 0.0 | 0.00 | 0.00 | 0.00 | 33 | 1012.3 |
| 20260505090730 | 60 | 267 | 0.0 | 0.0 | 0.00 | 0.00 | 0.00 | 33 | 1012.6 |
| 20260505090229 | 60 | 247 | 1.0 | 1.0 | 0.00 | 0.00 | 0.00 | 32 | 1012.5 |
| 20260505085726 | 60 | 243 | 3.0 | 3.0 | 0.00 | 0.00 | 0.00 | 32 | 1012.3 |
| 20260505085224 | 60 | 282 | 3.0 | 3.0 | 0.00 | 0.00 | 0.00 | 32 | 1012.3 |
| 20260505084721 | 60 | 305 | 3.0 | 3.0 | 0.00 | 0.00 | 0.00 | 32 | 1012.7 |
| 20260505084220 | 60 | 229 | 3.0 | 3.0 | 0.00 | 0.00 | 0.00 | 33 | 1012.7 |
| 20260505083716 | 60 | 254 | 1.0 | 2.0 | 0.00 | 0.00 | 0.00 | 33 | 1012.9 |
| 20260505083213 | 60 | 227 | 0.0 | 1.0 | 0.00 | 0.00 | 0.00 | 33 | 1013.2 |
| 20260505082709 | 60 | 308 | 0.0 | 1.0 | 0.00 | 0.00 | 0.00 | 33 | 1013.3 |
| 20260505082207 | 61 | 212 | 0.0 | 1.0 | 0.00 | 0.00 | 0.00 | 32 | 1013.3 |
| 20260505081702 | 61 | 268 | 2.0 | 2.0 | 0.00 | 0.00 | 0.00 | 32 | 1013.0 |
| 20260505081200 | 61 | 278 | 1.0 | 1.0 | 0.00 | 0.00 | 0.00 | 32 | 1013.3 |
| 20260505080657 | 61 | 284 | 2.0 | 2.0 | 0.00 | 0.00 | 0.00 | 31 | 1013.3 |
| 20260505080152 | 61 | 337 | 4.0 | 7.0 | 0.00 | 0.00 | 0.00 | 32 | 1013.4 |
| 20260505075649 | 61 | 236 | 3.0 | 5.0 | 0.00 | 0.00 | 0.00 | 31 | 1013.2 |
| 20260505075146 | 62 | 190 | 4.0 | 5.0 | 0.00 | 0.00 | 0.00 | 31 | 1013.0 |
| 20260505074643 | 62 | 290 | 4.0 | 6.0 | 0.00 | 0.00 | 0.00 | 31 | 1013.4 |
| 20260505074139 | 62 | 208 | 3.0 | 6.0 | 0.00 | 0.00 | 0.00 | 31 | 1012.9 |
| 20260505073637 | 62 | 274 | 1.0 | 1.0 | 0.00 | 0.00 | 0.00 | 31 | 1013.0 |
| 20260505073135 | 62 | 183 | 3.0 | 3.0 | 0.00 | 0.00 | 0.00 | 31 | 1012.9 |
| 20260505072630 | 62 | 117 | 1.0 | 2.0 | 0.00 | 0.00 | 0.00 | 31 | 1012.9 |
| 20260505072127 | 62 | 150 | 2.0 | 2.0 | 0.00 | 0.00 | 0.00 | 31 | 1013.2 |
| 20260505071623 | 62 | 279 | 1.0 | 1.0 | 0.00 | 0.00 | 0.00 | 31 | 1013.0 |
| 20260505071121 | 63 | 216 | 3.0 | 3.0 | 0.00 | 0.00 | 0.00 | 30 | 1012.9 |
| 20260505070618 | 63 | 236 | 2.0 | 2.0 | 0.00 | 0.00 | 0.00 | 30 | 1012.9 |
| 20260505070114 | 63 | 239 | 3.0 | 5.0 | 0.00 | 0.00 | 0.00 | 30 | 1013.0 |
| 20260505065610 | 63 | 218 | 3.0 | 5.0 | 0.00 | 0.00 | 0.00 | 30 | 1012.8 |
| 20260505065107 | 63 | 280 | 3.0 | 3.0 | 0.00 | 0.00 | 0.00 | 30 | 1012.7 |
| 20260505064604 | 63 | 213 | 1.0 | 2.0 | 0.00 | 0.00 | 0.00 | 29 | 1012.6 |
| 20260505064103 | 63 | 216 | 3.0 | 5.0 | 0.00 | 0.00 | 0.00 | 29 | 1012.8 |
| 20260505063559 | 64 | 230 | 4.0 | 5.0 | 0.00 | 0.00 | 0.00 | 29 | 1012.8 |
| 20260505063055 | 64 | 209 | 4.0 | 5.0 | 0.00 | 0.00 | 0.00 | 28 | 1012.5 |
| 20260505062552 | 64 | 292 | 5.0 | 7.0 | 0.00 | 0.00 | 0.00 | 28 | 1012.6 |
| 20260505062049 | 64 | 204 | 3.0 | 5.0 | 0.00 | 0.00 | 0.00 | 28 | 1012.7 |
| 20260505061546 | 64 | 187 | 1.0 | 3.0 | 0.00 | 0.00 | 0.00 | 27 | 1012.6 |
| 20260505061044 | 64 | 238 | 5.0 | 7.0 | 0.00 | 0.00 | 0.00 | 27 | 1012.7 |
| 20260505060541 | 64 | 240 | 5.0 | 7.0 | 0.00 | 0.00 | 0.00 | 27 | 1012.9 |
| 20260505060038 | 65 | 203 | 6.0 | 9.0 | 0.00 | 0.00 | 0.00 | 27 | 1012.7 |
| 20260505055533 | 65 | 212 | 5.0 | 7.0 | 0.00 | 0.00 | 0.00 | 26 | 1012.7 |
| 20260505055030 | 65 | 205 | 5.0 | 7.0 | 0.00 | 0.00 | 0.00 | 26 | 1012.5 |
| 20260505054527 | 65 | 249 | 4.0 | 6.0 | 0.00 | 0.00 | 0.00 | 26 | 1012.3 |
| 20260505054026 | 65 | 199 | 4.0 | 7.0 | 0.00 | 0.00 | 0.00 | 26 | 1012.5 |
| 20260505053522 | 65 | 249 | 5.0 | 7.0 | 0.00 | 0.00 | 0.00 | 25 | 1012.9 |
| 20260505053019 | 66 | 241 | 8.0 | 14.0 | 0.00 | 0.00 | 0.00 | 25 | 1012.7 |
| 20260505052516 | 66 | 220 | 5.0 | 8.0 | 0.00 | 0.00 | 0.00 | 25 | 1012.5 |
| 20260505052014 | 66 | 268 | 5.0 | 7.0 | 0.00 | 0.00 | 0.00 | 24 | 1012.7 |
| 20260505051510 | 66 | 213 | 4.0 | 5.0 | 0.00 | 0.00 | 0.00 | 24 | 1012.3 |
| 20260505051009 | 66 | 267 | 5.0 | 6.0 | 0.00 | 0.00 | 0.00 | 24 | 1012.5 |
| 20260505050506 | 66 | 252 | 3.0 | 3.0 | 0.00 | 0.00 | 0.00 | 24 | 1012.3 |
| 20260505041434 | 67 | 236 | 3.0 | 6.0 | 0.00 | 0.00 | 0.00 | 23 | 1012.1 |
| 20260505040931 | 67 | 251 | 3.0 | 5.0 | 0.00 | 0.00 | 0.00 | 23 | 1012.0 |
| 20260505040429 | 68 | 245 | 2.0 | 2.0 | 0.00 | 0.00 | 0.00 | 23 | 1012.2 |
| 20260505035925 | 68 | 281 | 2.0 | 2.0 | 0.00 | 0.00 | 0.00 | 23 | 1011.5 |
| 20260505035421 | 68 | 202 | 2.0 | 2.0 | 0.00 | 0.00 | 0.00 | 23 | 1012.0 |
| 20260505034919 | 67 | 246 | 1.0 | 1.0 | 0.00 | 0.00 | 0.00 | 23 | 1011.8 |
| 20260505034415 | 67 | 237 | 4.0 | 5.0 | 0.00 | 0.00 | 0.00 | 23 | 1012.0 |
| 20260505033912 | 68 | 243 | 1.0 | 1.0 | 0.00 | 0.00 | 0.00 | 24 | 1012.1 |
| 20260505033409 | 68 | 313 | 1.0 | 1.0 | 0.00 | 0.00 | 0.00 | 24 | 1011.8 |
| 20260505032907 | 68 | 293 | 1.0 | 1.0 | 0.00 | 0.00 | 0.00 | 24 | 1011.9 |
| 20260505032403 | 68 | 258 | 3.0 | 3.0 | 0.00 | 0.00 | 0.00 | 23 | 1011.6 |
| 20260505031900 | 68 | 232 | 1.0 | 1.0 | 0.00 | 0.00 | 0.00 | 23 | 1011.3 |
| 20260505031357 | 69 | 203 | 1.0 | 2.0 | 0.00 | 0.00 | 0.00 | 23 | 1011.4 |
| 20260505030854 | 69 | 246 | 3.0 | 5.0 | 0.00 | 0.00 | 0.00 | 22 | 1011.3 |
| 20260505030350 | 69 | 244 | 2.0 | 2.0 | 0.00 | 0.00 | 0.00 | 22 | 1011.2 |
| 20260505025845 | 69 | 237 | 3.0 | 5.0 | 0.00 | 0.00 | 0.00 | 22 | 1010.9 |
| 20260505025343 | 69 | 273 | 1.0 | 1.0 | 0.00 | 0.00 | 0.00 | 22 | 1011.1 |
| 20260505024842 | 70 | 226 | 3.0 | 5.0 | 0.00 | 0.00 | 0.00 | 22 | 1010.7 |
| 20260505024339 | 70 | 300 | 8.0 | 9.0 | 0.00 | 0.00 | 0.00 | 22 | 1010.7 |
| 20260505023836 | 70 | 191 | 6.0 | 9.0 | 0.00 | 0.00 | 0.00 | 22 | 1011.2 |
| 20260505023333 | 70 | 252 | 6.0 | 10.0 | 0.00 | 0.00 | 0.00 | 21 | 1010.7 |
| 20260505022830 | 70 | 325 | 7.0 | 9.0 | 0.00 | 0.00 | 0.00 | 21 | 1010.8 |
| 20260505022327 | 70 | 255 | 4.0 | 7.0 | 0.00 | 0.00 | 0.00 | 21 | 1010.8 |
| 20260505021825 | 70 | 223 | 4.0 | 6.0 | 0.00 | 0.00 | 0.00 | 21 | 1011.2 |
| 20260505021321 | 70 | 247 | 3.0 | 5.0 | 0.00 | 0.00 | 0.00 | 21 | 1010.9 |
| 20260505020817 | 71 | 239 | 5.0 | 7.0 | 0.00 | 0.00 | 0.00 | 20 | 1010.7 |
| 20260505020313 | 71 | 265 | 6.0 | 9.0 | 0.00 | 0.00 | 0.00 | 20 | 1010.6 |
| 20260505015810 | 71 | 219 | 5.0 | 10.0 | 0.00 | 0.00 | 0.00 | 20 | 1010.6 |
| 20260505015307 | 71 | 234 | 3.0 | 3.0 | 0.00 | 0.00 | 0.00 | 19 | 1010.5 |
| 20260505014804 | 71 | 268 | 4.0 | 7.0 | 0.00 | 0.00 | 0.00 | 19 | 1010.3 |
| 20260505014301 | 71 | 212 | 6.0 | 8.0 | 0.00 | 0.00 | 0.00 | 20 | 1010.6 |
| 20260505013757 | 72 | 326 | 4.0 | 8.0 | 0.00 | 0.00 | 0.00 | 20 | 1010.5 |
| 20260505013255 | 72 | 297 | 6.0 | 7.0 | 0.00 | 0.00 | 0.00 | 19 | 1010.0 |
| 20260505012753 | 72 | 258 | 3.0 | 6.0 | 0.00 | 0.00 | 0.00 | 19 | 1010.1 |
| 20260505012250 | 72 | 236 | 5.0 | 7.0 | 0.00 | 0.00 | 0.00 | 19 | 1010.2 |
| 20260505011745 | 72 | 226 | 5.0 | 6.0 | 0.00 | 0.00 | 0.00 | 19 | 1010.0 |
| 20260505011243 | 72 | 213 | 4.0 | 6.0 | 0.00 | 0.00 | 0.00 | 19 | 1010.1 |
| 20260505010738 | 73 | 221 | 3.0 | 5.0 | 0.00 | 0.00 | 0.00 | 19 | 1010.0 |
| 20260505010235 | 73 | 296 | 3.0 | 5.0 | 0.00 | 0.00 | 0.00 | 20 | 1010.2 |
| 20260505005731 | 73 | 242 | 3.0 | 6.0 | 0.00 | 0.00 | 0.00 | 20 | 1010.3 |
| 20260505005228 | 73 | 278 | 4.0 | 6.0 | 0.00 | 0.00 | 0.00 | 19 | 1010.1 |
| 20260505004726 | 73 | 291 | 5.0 | 8.0 | 0.00 | 0.00 | 0.00 | 19 | 1010.2 |
| 20260505004222 | 73 | 166 | 3.0 | 3.0 | 0.00 | 0.00 | 0.00 | 19 | 1010.1 |
| 20260505003719 | 73 | 27 | 2.0 | 5.0 | 0.00 | 0.00 | 0.00 | 18 | 1010.1 |
| 20260505003217 | 74 | 293 | 7.0 | 9.0 | 0.00 | 0.00 | 0.00 | 18 | 1010.2 |
| 20260505002713 | 74 | 247 | 4.0 | 6.0 | 0.00 | 0.00 | 0.00 | 18 | 1010.5 |
| 20260505002211 | 74 | 219 | 4.0 | 6.0 | 0.00 | 0.00 | 0.00 | 18 | 1010.3 |